Volver al catálogo

STARLINK-2476

ActivoComunicacionesVLEO
NORAD 48134·PAYLOAD·🇺🇸 United States

Lanzado Apr 7, 2021 desde Cape Canaveral Space Force Station

Loading…

Próximos Pases (próximas 24 horas)

TLE

ActualizadoSource: CelesTrak SupGP

Época: Sep 15, 2026, 02:21 UTC

1 48134C 21027AU  26258.09840278  .00032615  00000+0  10491-2 0  2584
2 48134  53.1606   3.7824 0001012  72.9748 225.3330 15.31677371    18

Sigue STARLINK-2476 en tiempo real con AllMySat

Download on the App Store